Location: Newark
(7.0858°N, 171.3717°E)
Time: 17:41:33
(UTC+00:00)

Transit 2A - Pass Details

Date: 03 December 2020
Orbit: 598 x 960 km, 66.7° (Epoch: 20 January)

Event Time Altitude Azimuth Distance (km) Brightness Sun altitude
Rises 02:54:05 0° 182° (S) 3,550 9.9 43.1°
Reaches altitude 10° 02:56:46 10° 174° (S) 2,640 9.3 42.6°
Maximum altitude 03:02:25 37° 108° (ESE) 1,453 7.6 41.5°
Drops below altitude 10° 03:08:09 10° 44° (NE) 2,679 8.5 40.4°
Sets 03:10:52 0° 36° (NE) 3,608 9.0 39.8°
